Weather History for Williams, AZ

Change the Weather History Date:

Monday, May 27, 2013

  Actual Average (KFLG) Record (KFLG)
Temperature  
Mean Temperature 57 °F 54 °F  
Max Temperature 73 °F 72 °F 87 °F (1974)
Min Temperature 41 °F 37 °F 23 °F (1916)
Degree Days  
Heating Degree Days 8 11  
Month to date heating degree days 376  
Since 1 July heating degree days 6732  
Cooling Degree Days 0 0  
Month to date cooling degree days 0  
Year to date cooling degree days 0  
Growing Degree Days 7 (Base 50)    
Moisture  
Dew Point 18 °F    
Average Humidity 22    
Maximum Humidity 39    
Minimum Humidity 12    
Precipitation  
Precipitation 0.00 in 0.02 in 0.68 in (1901)
Month to date precipitation 0.55  
Year to date precipitation 8.03  
Snow  
Snow 0.00 in 0.00 in 0.80 in (1962)
Month to date snowfall 0.7  
Since 1 July snowfall 101.7  
Snow Depth -    
Sea Level Pressure  
Sea Level Pressure 30.14 in    
Wind  
Wind Speed 8 mph (South)    
Max Wind Speed 17 mph    
Max Gust Speed 26 mph    
Visibility 10 miles    
Events      
T = Trace of Precipitation, MM = Missing Value Source: NWS Daily Summary

Daily Weather History Graph

Daily Weather History Graph

Search for Another Location

Airport:

Trip Planner

Search our weather history database for the weather conditions in past years. The results will help you decide how hot, cold, wet, or windy it might be!

Date:

Astronomy

May. 27, 2013 Rise Set
Actual Time 5:17 AM MST 7:35 PM MST
Civil Twilight 4:47 AM MST 8:04 PM MST
Nautical Twilight 4:12 AM MST 8:40 PM MST
Astronomical Twilight 3:33 AM MST 9:19 PM MST
Moon 10:20 PM MST 7:57 AM MST
Length of Visible Light 15h 16m
Length of Day
14h 18m
Waning Gibbous, 90% of the Moon is Illuminated
May 27
Waning Gibbous
May 31
Last Quarter
Jun 8
New
Jun 16
First Quarter
Jun 23
Full

Hourly Weather History & Observations

Time (MST) Temp. Windchill Dew Point Humidity Pressure Visibility Wind Dir Wind Speed Gust Speed Precip Events Conditions
12:15 AM 48.2 °F - 14.0 °F 25% 30.20 in 10.0 mi SSE 6.9 mph - N/A   Clear
12:35 AM 48.2 °F - 14.0 °F 25% 30.20 in 10.0 mi SSE 5.8 mph - N/A   Clear
12:55 AM 48.2 °F - 14.0 °F 25% 30.20 in 10.0 mi SSE 4.6 mph - N/A   Clear
1:15 AM 46.4 °F 42.9 °F 14.0 °F 27% 30.19 in 10.0 mi SSE 6.9 mph - N/A   Clear
1:35 AM 46.4 °F 43.5 °F 14.0 °F 27% 30.20 in 10.0 mi SSE 5.8 mph - N/A   Clear
1:55 AM 42.8 °F 38.6 °F 14.0 °F 31% 30.19 in 10.0 mi SSE 6.9 mph - N/A   Clear
2:15 AM 46.4 °F 43.5 °F 14.0 °F 27% 30.19 in 10.0 mi SSE 5.8 mph - N/A   Clear
2:35 AM 46.4 °F 43.5 °F 14.0 °F 27% 30.19 in 10.0 mi SE 5.8 mph - N/A   Clear
2:55 AM 46.4 °F 43.5 °F 14.0 °F 27% 30.18 in 10.0 mi SSE 5.8 mph - N/A   Clear
3:15 AM 44.6 °F 40.7 °F 14.0 °F 29% 30.18 in 10.0 mi SSE 6.9 mph - N/A   Clear
3:35 AM 42.8 °F 38.6 °F 14.0 °F 31% 30.17 in 10.0 mi SSE 6.9 mph - N/A   Clear
3:55 AM 44.6 °F 41.4 °F 14.0 °F 29% 30.17 in 10.0 mi SSE 5.8 mph - N/A   Clear
4:15 AM 41.0 °F 35.2 °F 15.8 °F 36% 30.17 in 10.0 mi SSE 9.2 mph - N/A   Clear
4:35 AM 41.0 °F 36.4 °F 15.8 °F 36% 30.17 in 10.0 mi SE 6.9 mph - N/A   Clear
4:55 AM 41.0 °F 36.4 °F 15.8 °F 36% 30.17 in 10.0 mi SSE 6.9 mph - N/A   Clear
5:15 AM 42.8 °F 39.3 °F 15.8 °F 34% 30.17 in 10.0 mi SSE 5.8 mph - N/A   Clear
5:35 AM 41.0 °F 37.1 °F 15.8 °F 36% 30.18 in 10.0 mi SSE 5.8 mph - N/A   Clear
5:55 AM 41.0 °F 37.1 °F 17.6 °F 39% 30.18 in 10.0 mi SSE 5.8 mph - N/A   Clear
6:15 AM 44.6 °F 40.2 °F 17.6 °F 34% 30.18 in 10.0 mi SSE 8.1 mph - N/A   Clear
6:35 AM 44.6 °F 41.4 °F 19.4 °F 37% 30.18 in 10.0 mi SSE 5.8 mph - N/A   Clear
6:55 AM 46.4 °F 42.9 °F 19.4 °F 34% 30.18 in 10.0 mi SSE 6.9 mph - N/A   Clear
7:15 AM 50.0 °F - 19.4 °F 30% 30.18 in 10.0 mi SSE 4.6 mph - N/A   Clear
7:35 AM 53.6 °F - 19.4 °F 26% 30.19 in 10.0 mi SSE 4.6 mph - N/A   Clear
7:55 AM 57.2 °F - 19.4 °F 23% 30.19 in 10.0 mi SSE 4.6 mph - N/A   Clear
8:15 AM 59.0 °F - 19.4 °F 22% 30.18 in 10.0 mi South 5.8 mph - N/A   Clear
8:35 AM 60.8 °F - 19.4 °F 20% 30.18 in 10.0 mi South 6.9 mph - N/A   Clear
8:55 AM 62.6 °F - 19.4 °F 19% 30.17 in 10.0 mi WSW 6.9 mph - N/A   Clear
9:15 AM 64.4 °F - 19.4 °F 18% 30.17 in 10.0 mi SSW 3.5 mph - N/A   Clear
9:35 AM 64.4 °F - 19.4 °F 18% 30.16 in 10.0 mi WSW 4.6 mph - N/A   Clear
9:55 AM 64.4 °F - 17.6 °F 16% 30.16 in 10.0 mi South 6.9 mph - N/A   Clear
10:15 AM 66.2 °F - 17.6 °F 15% 30.15 in 10.0 mi SW 6.9 mph - N/A   Clear
10:35 AM 66.2 °F - 17.6 °F 15% 30.15 in 10.0 mi SSW 6.9 mph - N/A   Clear
10:55 AM 66.2 °F - 17.6 °F 15% 30.15 in 10.0 mi South 10.4 mph - N/A   Partly Cloudy
11:15 AM 66.2 °F - 19.4 °F 17% 30.15 in 10.0 mi South 8.1 mph - N/A   Clear
11:35 AM 66.2 °F - 17.6 °F 15% 30.15 in 10.0 mi WSW 8.1 mph - N/A   Clear
11:55 AM 68.0 °F - 17.6 °F 15% 30.14 in 10.0 mi SW 10.4 mph 17.3 mph N/A   Clear
12:15 PM 68.0 °F - 15.8 °F 13% 30.14 in 10.0 mi SW 11.5 mph - N/A   Clear
12:35 PM 69.8 °F - 17.6 °F 14% 30.14 in 10.0 mi SW 9.2 mph - N/A   Clear
12:55 PM 69.8 °F - 17.6 °F 14% 30.13 in 10.0 mi SW 10.4 mph 17.3 mph N/A   Clear
1:15 PM 69.8 °F - 15.8 °F 13% 30.13 in 10.0 mi SSW 10.4 mph 17.3 mph N/A   Clear
1:35 PM 73.4 °F - 17.6 °F 12% 30.13 in 10.0 mi WSW 15.0 mph 21.9 mph N/A   Clear
1:55 PM 71.6 °F - 17.6 °F 13% 30.12 in 10.0 mi SW 8.1 mph 19.6 mph N/A   Clear
2:15 PM 71.6 °F - 17.6 °F 13% 30.12 in 10.0 mi South 13.8 mph 21.9 mph N/A   Clear
2:35 PM 71.6 °F - 17.6 °F 13% 30.12 in 10.0 mi WSW 11.5 mph 17.3 mph N/A   Clear
2:55 PM 71.6 °F - 17.6 °F 13% 30.11 in 10.0 mi WSW 16.1 mph 20.7 mph N/A   Clear
3:15 PM 71.6 °F - 17.6 °F 13% 30.10 in 10.0 mi South 11.5 mph - N/A   Clear
3:35 PM 73.4 °F - 19.4 °F 13% 30.10 in 10.0 mi South 17.3 mph 23.0 mph N/A   Clear
3:55 PM 71.6 °F - 17.6 °F 13% 30.09 in 10.0 mi SW 16.1 mph 24.2 mph N/A   Clear
4:15 PM 73.4 °F - 17.6 °F 12% 30.09 in 10.0 mi SW 16.1 mph 20.7 mph N/A   Clear
4:35 PM 71.6 °F - 17.6 °F 13% 30.09 in 10.0 mi WSW 8.1 mph 26.5 mph N/A   Clear
4:55 PM 71.6 °F - 17.6 °F 13% 30.08 in 10.0 mi SW 15.0 mph 24.2 mph N/A   Clear
5:15 PM 69.8 °F - 17.6 °F 14% 30.08 in 10.0 mi WSW 13.8 mph 18.4 mph N/A   Clear
5:35 PM 69.8 °F - 17.6 °F 14% 30.08 in 10.0 mi WSW 16.1 mph 20.7 mph N/A   Clear
5:55 PM 69.8 °F - 17.6 °F 14% 30.08 in 10.0 mi SW 13.8 mph 17.3 mph N/A   Clear
6:15 PM 68.0 °F - 17.6 °F 15% 30.08 in 10.0 mi SW 12.7 mph 18.4 mph N/A   Clear
6:35 PM 66.2 °F - 19.4 °F 17% 30.08 in 10.0 mi SSW 10.4 mph - N/A   Clear
6:55 PM 64.4 °F - 19.4 °F 18% 30.08 in 10.0 mi South 10.4 mph - N/A   Clear
7:15 PM 64.4 °F - 19.4 °F 18% 30.08 in 10.0 mi South 6.9 mph - N/A   Clear
7:35 PM 62.6 °F - 19.4 °F 19% 30.09 in 10.0 mi SSW 10.4 mph - N/A   Clear
7:55 PM 62.6 °F - 19.4 °F 19% 30.09 in 10.0 mi South 10.4 mph - N/A   Clear
8:15 PM 59.0 °F - 19.4 °F 22% 30.09 in 10.0 mi South 9.2 mph - N/A   Clear
8:35 PM 59.0 °F - 21.2 °F 23% 30.10 in 10.0 mi South 6.9 mph - N/A   Clear
8:55 PM 57.2 °F - 21.2 °F 25% 30.10 in 10.0 mi South 6.9 mph - N/A   Clear
9:15 PM 59.0 °F - 21.2 °F 23% 30.10 in 10.0 mi South 10.4 mph - N/A   Clear
9:35 PM 59.0 °F - 21.2 °F 23% 30.11 in 10.0 mi South 5.8 mph - N/A   Clear
9:55 PM 57.2 °F - 21.2 °F 25% 30.11 in 10.0 mi South 9.2 mph - N/A   Clear
10:15 PM 57.2 °F - 21.2 °F 25% 30.11 in 10.0 mi South 6.9 mph - N/A   Clear
10:35 PM 55.4 °F - 21.2 °F 26% 30.10 in 10.0 mi SSE 6.9 mph - N/A   Clear
10:55 PM 55.4 °F - 19.4 °F 25% 30.10 in 10.0 mi South 5.8 mph - N/A   Clear
11:15 PM 57.2 °F - 19.4 °F 23% 30.09 in 10.0 mi South 4.6 mph - N/A   Clear
11:35 PM 55.4 °F - 19.4 °F 25% 30.09 in 10.0 mi South 3.5 mph - N/A   Clear
11:55 PM 53.6 °F - 19.4 °F 26% 30.09 in 10.0 mi ESE 3.5 mph - N/A   Clear